Volver al catálogo

STARLINK-31416

ActivoComunicacionesVLEO
NORAD 59355·PAYLOAD·🇺🇸 United States

Lanzado Mar 31, 2024 desde Cape Canaveral Space Force Station

Loading…

Próximos Pases (próximas 24 horas)

TLE

ActualizadoSource: CelesTrak SupGP

Época: Sep 14, 2026, 22:06 UTC

1 59355C 24060H   26257.92131944  .00032465  00000+0  11763-2 0  2570
2 59355  42.9995 271.2310 0001425 265.5663  61.1253 15.27551418    16

Sigue STARLINK-31416 en tiempo real con AllMySat

Download on the App Store